Regional Weather Roundup
Issued by NWS

Home | Current Version | Previous Version | Graphics & Text | Print | Product List | Glossary On
Versions: 1 2 3 4 5 6 7 8 9 10 11 12 13 14 15 16 17 18 19 20 21 22 23 24 25 26 27 28 29 30 31 32 33 34 35 36 37 38 39 40 41 42 43 44 45 46 47 48 49 50
000
ASUS43 KIND 251959
RWRIN

WEATHER ROUNDUP FOR INDIANA
NATIONAL WEATHER SERVICE INDIANAPOLIS IN
400 PM EDT SAT MAR 25 2017

NOTE: "FAIR" INDICATES FEW OR NO CLOUDS BELOW 12,000 FEET WITH NO
SIGNIFICANT WEATHER AND/OR OBSTRUCTIONS TO VISIBILITY.

* - STATION DOES NOT REPORT WEATHER SUCH AS PRECIPITATION OR FOG.

+ - STATION NOT QUALITY CONTROLLED BY THE NATIONAL WEATHER SERVICE.
    USE DATA WITH CAUTION...ESPECIALLY DEWPOINT AND RELATIVE
    HUMIDITY OBSERVATIONS.

INZ001>003-010>013-019-020-252100-
NORTHWEST INDIANA

CITY           SKY/WX    TMP DP  RH WIND       PRES   REMARKS
GARY /AIRPORT/ CLOUDY    48  48 100 CALM      29.98F FOG
MONTICELLO +   CLOUDY    72  51  48 S12G20    29.95F

$$

LMZ046-743>745-252100-
SOUTHERN LAKE MICHIGAN

STATION/POSITION TIME  TEMP    WIND        PRES    WAVE
                       AIR SEA DIR/SP/G            HT
                 (UTC) (F)     (DEG/KT/KT) (MB)    (FT)
BURNS HARBOR     1940   47      30/  3/  5 1015.6F
MICHIGAN CITY    1930   60      90/ 11/ 16   N/A

$$

INZ004-005-014>016-021>024-252100-
NORTH CENTRAL INDIANA

CITY           SKY/WX    TMP DP  RH WIND       PRES   REMARKS
ELKHART        CLOUDY    57  48  72 E15       30.02F
GOSHEN         CLOUDY    62  49  62 E18       30.01F
SOUTH BEND     CLOUDY    58  50  75 E13       30.02F

$$

INZ006>009-017-018-025>027-252100-
NORTHEAST INDIANA

CITY           SKY/WX    TMP DP  RH WIND       PRES   REMARKS
ANGOLA *+      MOSUNNY   55  48  76 E14       30.08R
FORT WAYNE     CLOUDY    65  50  58 NE21      30.03F
KENDALLVILLE + CLOUDY    59  48  67 E16G23    30.05F

$$

INZ028-029-035-036-043>045-051>053-252100-
WEST CENTRAL INDIANA

CITY           SKY/WX    TMP DP  RH WIND       PRES   REMARKS
CRAWFORDSVL +  CLOUDY    68  51  55 S16       29.96S
GREENCASTLE +  PTSUNNY   70  50  49 S9G20     29.96F
LAFAYETTE      LGT RAIN  68  54  60 S10       29.94F
TERRE HAUTE    LGT RAIN  69  52  54 S16G25    29.95S

$$

INZ030>032-037>040-046>048-054>057-064-065-252100-
CENTRAL INDIANA

CITY           SKY/WX    TMP DP  RH WIND       PRES   REMARKS
ANDERSON       MOSUNNY   73  52  46 S12G23    30.00F
INDIANAPOLIS   CLOUDY    73  51  46 S13       29.96F
-EAGLE CREEK   CLOUDY    74  52  46 S7        29.96F
KOKOMO +       CLOUDY    71  56  58 S10       30.00S
SHELBYVILLE    CLOUDY    77  50  38 S22G28    29.98F

$$

INZ033-034-041-042-049-050-058-059-252100-
EAST CENTRAL INDIANA

CITY           SKY/WX    TMP DP  RH WIND       PRES   REMARKS
MUNCIE         CLOUDY    76  51  41 S15G23    30.00F
RICHMOND +     PTSUNNY   72  52  49 SE14G21   30.04F

$$

INZ060-061-067>069-081>083-085>088-252100-
SOUTHWEST INDIANA

CITY           SKY/WX    TMP DP  RH WIND       PRES   REMARKS
EVANSVILLE     LGT RAIN  72  53  51 S13       29.94F
HUNTINGBURG *+ CLOUDY    72  54  53 S15G21    29.96F

$$

INZ062-063-066-070>080-084-089>092-252100-
SOUTH CENTRAL AND SOUTHEAST INDIANA

CITY           SKY/WX    TMP DP  RH WIND       PRES   REMARKS
BLOOMINGTON    PTSUNNY   74  49  41 S13       29.96S
MADISON *+     MOSUNNY   77  46  33 S10G22    30.02F
SEYMOUR +      MOSUNNY   79  52  38 S15G23    29.97F

$$





USA.gov is the U.S. government's official web portal to all federal, state and local government web resources and services.